User: anonymous   Login
Location: Unspecified
(0.0000°N, 0.0000°E)
Time: 17:27:52
(UTC+00:00)
Language:

AIST 2 - Orbit

View from above orbital plane
View from above orbital plane
View from above satellite
View from above satellite

Ground track
Ground track

The orbit data is extracted from the following two-line orbital elements,

1 39133U 13015D   18116.13594013  .00000121  00000-0  21122-4 0  9998
2 39133  64.8748  16.3560 0027303 230.4729 129.3977 15.04531351275382
Epoch (UTC): 26 April 2018 03:15:45
Eccentricity: 0.0027303
inclination: 64.8748°
perigee height: 534 km
apogee height: 572 km
right ascension of ascending node: 16.3560°
argument of perigee: 230.4729°
revolutions per day: 15.04531351
mean anomaly at epoch: 129.3977°
orbit number at epoch: 27538

The dashed part of the orbit path shows where the satellite is in the earth's shadow,  

DLR